This is the latest recevied weather packets stored in our database for station/object KN4MGS. If no packets are shown the sender has not sent any weather packets the latest 10 day(s).
| Time | Temp. | Humidity | Pressure | Rain* | Wind** | Luminosity | Snow |
|---|---|---|---|---|---|---|---|
| 1777996372 | 24.44° C | 54% | 1020.7 hPa | 0 mm | - | 719 W/m² | - |
| 1777996069 | 23.89° C | 57% | 1020.9 hPa | 0 mm | - | 677 W/m² | - |
| 1777995765 | 23.89° C | 55% | 1020.9 hPa | 0 mm | - | 666 W/m² | - |
| 1777995462 | 24.44° C | 56% | 1020.7 hPa | 0 mm | - | 659 W/m² | - |
| 1777995159 | 23.89° C | 58% | 1020.7 hPa | 0 mm | - | 718 W/m² | - |
| 1777994856 | 23.33° C | 59% | 1020.9 hPa | 0 mm | - | 712 W/m² | - |
| 1777994552 | 23.33° C | 61% | 1020.7 hPa | 0 mm | - | 713 W/m² | - |
| 1777994246 | 23.89° C | 59% | 1020.9 hPa | 0 mm | - | 720 W/m² | - |
| 1777993944 | 23.89° C | 62% | 1020.8 hPa | 0 mm | - | 756 W/m² | - |
| 1777993640 | 23.33° C | 62% | 1021 hPa | 0 mm | - | 739 W/m² | - |
| 1777993338 | 22.78° C | 63% | 1021 hPa | 0 mm | - | 719 W/m² | - |
| 1777993032 | 22.78° C | 62% | 1020.9 hPa | 0 mm | - | 686 W/m² | - |
| 1777992732 | 22.78° C | 64% | 1020.8 hPa | 0 mm | - | 729 W/m² | - |
| 1777992429 | 21.67° C | 64% | 1020.9 hPa | 0 mm | - | 752 W/m² | - |
| 1777992127 | 22.22° C | 63% | 1020.8 hPa | 0 mm | - | 705 W/m² | - |
| 1777991823 | 22.78° C | 67% | 1020.9 hPa | 0 mm | - | 719 W/m² | - |
| 1777991521 | 22.78° C | 65% | 1021 hPa | 0 mm | - | 695 W/m² | - |
| 1777991217 | 22.22° C | 68% | 1021 hPa | 0 mm | - | 690 W/m² | - |
| 1777990915 | 22.22° C | 68% | 1020.8 hPa | 0 mm | - | 649 W/m² | - |
| 1777990613 | 21.11° C | 69% | 1020.7 hPa | 0 mm | - | 690 W/m² | - |
| 1777990005 | 20.56° C | 71% | 1021 hPa | 0 mm | - | 645 W/m² | - |
| 1777989702 | 20.56° C | 71% | 1020.7 hPa | 0 mm | - | 617 W/m² | - |
| 1777989398 | 20.56° C | 72% | 1021 hPa | 0 mm | - | 531 W/m² | - |
| 1777989095 | 20° C | 73% | 1020.8 hPa | 0 mm | - | 540 W/m² | - |
| 1777988791 | 20.56° C | 73% | 1020.7 hPa | 0 mm | - | 547 W/m² | - |
* Rain latest hour (hover to see other rain measurements)
** Current wind speed in m/s (hover to see current wind gust speed)